Location: *
(45.4590°N, 16.3650°E)
Time: 22:17:30
(UTC+00:00)

SL-16 R/B - Pass Details

Date: 17 January 2020
Orbit: 841 x 848 km, 71.0° (Epoch: 16 February)

Event Time Altitude Azimuth Distance (km) Brightness Sun altitude
Rises 17:17:03 0° 341° (NNW) 3,420 5.4 -16.8°
Reaches altitude 10° 17:20:06 10° 356° (N) 2,480 4.5 -17.3°
Enters shadow 17:24:00 22° 40° (NE) 1,773 3.4 -17.9°
